Regional Weather Roundup
Issued by NWS

Home | Current Version | Previous Version | Text Only | Print | Product List | Glossary On
Versions: 1 2 3 4 5 6 7 8 9 10 11 12 13 14 15 16 17 18 19 20 21 22 23 24 25 26 27 28 29 30 31 32 33 34 35 36 37 38 39 40 41 42 43 44 45 46 47 48 49 50
000
ASUS43 KLSX 030910
RWRMO

WEATHER SUMMARY FOR MISSOURI
NATIONAL WEATHER SERVICE SPRINGFIELD MO
300 AM CST SAT DEC 03 2016

NOTE: "FAIR" INDICATES FEW OR NO CLOUDS BELOW 12,000 FEET WITH NO
       SIGNIFICANT WEATHER AND/OR OBSTRUCTIONS TO VISIBILITY.
       CURRENT SKY AND/OR WEATHER CONDITIONS ARE NOT AVAILABLE FOR
       CHILLICOTHE AND FARMINGTON.

MOZ001>031-035>038-043-044-053-054-031000-
...NORTHERN AND WESTERN MISSOURI...

CITY           SKY/WX    TMP DP  RH WIND       PRES   REMARKS
KANSAS CTY INT PTCLDY    29  25  85 NE6       30.34  WCI  23
LEE`S SUMMIT   PTCLDY    33  27  78 NE6       30.34  WCI  28
ST JOSEPH      PTCLDY    24  23  96 CALM      30.36
CHILLICOTHE      N/A     29  26  89 CALM      30.38S
KIRKSVILLE     PTCLDY    26  24  92 N3        30.36F

$$
MOZ066>068-077>081-088>096-101>105-031000-
...SOUTHWEST MISSOURI...

CITY           SKY/WX    TMP DP  RH WIND       PRES   REMARKS
SPRINGFIELD    PTCLDY    45  26  47 E7        30.28
JOPLIN         CLOUDY    46  27  47 E9        30.27

$$
MOZ032>034-039>042-045>050-055>058-069>072-031000-
...CENTRAL MISSOURI...

CITY           SKY/WX    TMP DP  RH WIND       PRES   REMARKS
COLUMBIA       NOT AVBL
JEFFERSON CITY CLOUDY    27  24  89 CALM      30.37
ROLLA          CLOUDY    34  28  79 CALM      30.32
SEDALIA        PTCLDY    34  26  72 CALM      30.36
WHITEMAN AFB   MOCLDY    29  28  95 CALM      30.33S
WARRENSBURG    CLOUDY    30  27  86 N3        30.35R
OSAGE BEACH    CLOUDY    32  26  78 E5        30.34S WCI  27

$$
MOZ051-052-059>065-031000-
...EAST CENTRAL MISSOURI...

CITY           SKY/WX    TMP DP  RH WIND       PRES   REMARKS
ST LOUIS INTL  NOT AVBL
ST CHARLES     MOCLDY    29  27  92 CALM      30.37  FOG

$$
MOZ072>076-082>087-097>100-106>115-031000-
...SOUTH CENTRAL AND SOUTHEAST MISSOURI...

CITY           SKY/WX    TMP DP  RH WIND       PRES   REMARKS
CAPE GIRARDEAU PTCLDY    35  30  82 E3        30.37
FARMINGTON     PTCLDY    28  25  88 CALM      30.36S
POPLAR BLUFF   CLOUDY    39  34  82 NE5       30.35
WEST PLAINS    CLOUDY    40  29  64 NE3       30.33

$$




USA.gov is the U.S. government's official web portal to all federal, state and local government web resources and services.